Regional Weather Roundup
Issued by NWS Lake Charles, LA

Home | Current Version | Previous Version | Text Only | Print | Product List | Glossary On
Versions: 1 2 3 4 5 6 7 8 9 10 11 12 13 14 15 16 17 18 19 20 21 22 23 24 25 26 27 28 29 30 31 32 33 34 35 36 37 38 39 40 41 42 43 44 45 46 47 48 49 50
971
ASUS44 KLCH 140210
RWRLCH
REGIONAL WEATHER ROUNDUP
NATIONAL WEATHER SERVICE LAKE CHARLES LA
800 PM CST SAT FEB 13 2016

Note: "fair" indicates few or no clouds below 12,000 feet with no
significant weather and/or obstructions to visibility.


ACROSS SOUTHEAST TEXAS

CITY           SKY/WX    TMP DP  RH WIND       PRES   REMARKS
BEAUMONT       MOCLDY    57  48  72 SE13      30.28S
BEAUMONT CITY  MOCLDY    57  46  66 SE6       30.29S
ORANGE         CLOUDY    58  46  65 SE6       30.31S
JASPER         CLOUDY    58  42  56 SE3       30.29F
$$

ACROSS CENTRAL LOUISIANA

CITY           SKY/WX    TMP DP  RH WIND       PRES   REMARKS
LEESVILLE      CLEAR     53  36  53 E6        30.30R
FULLERTON      MOCLDY    51  36  56 CALM      30.28
ALEXANDRIA INT PTCLDY    50  31  48 E7        30.31S
ESLER FIELD    CLEAR     46  33  60 CALM      30.33F
DERIDDER         N/A     57  38  48 E3        30.31S
OAKDALE          N/A     46  40  81 CALM      30.31S
OPELOUSAS      FAIR      50  40  69 CALM      30.32R
$$

ACROSS SOUTHWEST AND SOUTH CENTRAL LOUISIANA

CITY           SKY/WX    TMP DP  RH WIND       PRES   REMARKS
SULPHUR        CLOUDY    59  48  67 MISG      30.31S
LAKE CHARLES   CLOUDY    57  47  69 S8        30.30R
CHENNAULT INT  CLEAR     57  45  62 S7        30.30S
CAMERON PHI    NOT AVBL
DEQUINCY       CLOUDY    57  46  66 SE3       30.30S
JENNINGS       CLOUDY    57  46  67 S5        30.31S
LAFAYETTE      PTCLDY    57  42  57 S5        30.32S
NEW IBERIA     CLEAR     52  44  74 S7        30.33S
ABBEVILLE      FAIR      51  47  87 S6        30.33R
PATTERSON      CLEAR     54  43  66 SE8       30.34S
SALT POINT       N/A     53  49  86 SE7       30.32S
$$

SELECTED SITES ACROSS THE REGION

CITY           SKY/WX    TMP DP  RH WIND       PRES   REMARKS
HOUSTON BUSH   MOCLDY    58  50  75 SE12      30.25S
HOUSTON HOBBY  MOCLDY    60  53  77 SE10      30.25S
GALVESTON      PTCLDY    59  56  89 E15       30.26F
COLLEGE STAT   CLEAR     62  53  72 SE13      30.19S
CONROE         CLOUDY    59  48  67 SE10      30.24F
HUNTSVILLE     PTCLDY    60  50  69 SE6       30.22S
LUFKIN         CLEAR     54  42  64 SE6       30.24F
SHREVEPORT     CLOUDY    52  30  43 E14       30.28F
MONROE         CLEAR     39  21  48 NE7       30.38S
NATCHEZ MS     CLEAR     46  28  49 NE3       30.34F
BATON ROUGE    CLEAR     51  38  60 E3        30.33S
N.O. INTL ARPT CLEAR     53  37  54 SE6       30.35R
SLIDELL        CLEAR     45  41  86 CALM      30.35S
$$

MARINE REPORTS

STATION/POSITION TIME  SKY/WX   TEMP    WIND        PRES    VSBY
                                AIR SEA DIR/SP/G
                 (UTC)          (F)     (DEG/KT/KT) (MB)    (MI)
BUOY 30 S HIGH I 0150            60 60  110/ 16/ 17 1024.5F
WVE H/P(F/S)=  4/ 6

SEA RIM ST PARK  0200            58     120/ 16/ 18 1025.9F
PORT ARTHUR      0100               58  140/  6/ 10 1025.8F
SABINE PASS N    0100            58 59  120/ 16/ 19 1026.9F
TEXAS POINT      NOT AVBL
CALCASIEU PASS   0100            58 60  160/ 14/ 16 1025.1F
LK CHARLES BEACH 0100            59 58              1026.3F
MARSH ISLAND     NOT AVBL
FRESH WATER LOCK 0100            57 63  120/  8/ 12 1026.6F
AMERADA PASS     0100            55 53  130/  4/  7 1027.1S
$$




USA.gov is the U.S. government's official web portal to all federal, state and local government web resources and services.